Mt. Clemens, MI

9:44 PM EST on December 13, 2019 (GMT -0500)
Selfridge Angb

Weather History for KMTC - October, 2019

Change the Weather History Date:

Tuesday, October 15, 2019

  Actual Average Record
Temperature  
Mean Temperature 48 °F -  
Max Temperature 61 °F 60 °F 80 °F (1958)
Min Temperature 34 °F 44 °F 30 °F (2006)
Degree Days  
Heating Degree Days 18    
Moisture  
Dew Point 44 °F    
Average Humidity 82    
Maximum Humidity 100    
Minimum Humidity 57    
Precipitation  
Precipitation 0.00 in - - ()
Sea Level Pressure  
Sea Level Pressure 29.94 in    
Wind  
Wind Speed 5 mph (SE)    
Max Wind Speed 15 mph    
Max Gust Speed -    
Visibility 10 miles    
Events      
Averages and records for this station are not official NWS values.
T = Trace of Precipitation, MM = Missing Value Source: NWS Daily Summary

Daily Weather History Graph

Daily Weather History Graph

Search for Another Location

Airport or City:

Astronomy

Oct. 15, 2019 Rise Set
Actual Time 7:44 AM EDT 6:49 PM EDT
Civil Twilight 7:15 AM EDT 7:17 PM EDT
Nautical Twilight 6:43 AM EDT 7:50 PM EDT
Astronomical Twilight 6:10 AM EDT 8:23 PM EDT
Moon 8:07 PM EDT (10/15) 9:14 AM EDT (10/15)
Length of Visible Light 12h 02m
Length of Day
11h 05m
Full, 97% of the Moon is Illuminated
Oct 15
Full
Oct 21
Last Quarter
Oct 27
New
Nov 4
First Quarter
Nov 12
Full

Hourly Weather History & Observations

Time (EDT) Temp. Dew Point Humidity Pressure Visibility Wind Dir Wind Speed Gust Speed Precip Events Conditions
12:56 AM 37.2 °F 37.2 °F 100% 30.13 in 10.0 mi Calm Calm - N/A   Clear
1:56 AM 36.9 °F 36.9 °F 100% 30.13 in 10.0 mi Calm Calm - N/A   Clear
2:56 AM 36.0 °F 36.0 °F 100% 30.13 in 10.0 mi Calm Calm - N/A   Clear
3:56 AM 34.9 °F 34.9 °F 100% 30.13 in 10.0 mi Calm Calm - N/A   Clear
4:56 AM 34.0 °F 34.0 °F 100% 30.13 in 10.0 mi Calm Calm - N/A   Clear
5:56 AM 35.2 °F 35.2 °F 100% 30.13 in 10.0 mi Calm Calm - N/A   Clear
6:56 AM 35.4 °F 35.4 °F 100% 30.13 in 10.0 mi Calm Calm - N/A   Clear
7:56 AM 36.1 °F 36.1 °F 100% 30.12 in 10.0 mi Calm Calm - N/A   Mostly Cloudy
8:56 AM 39.7 °F 39.7 °F 100% 30.11 in 10.0 mi Calm Calm - N/A   Mostly Cloudy
9:56 AM 49.8 °F 48.4 °F 95% 30.09 in 10.0 mi ESE 8.1 mph - N/A   Mostly Cloudy
10:56 AM 52.5 °F 46.2 °F 79% 30.06 in 10.0 mi SE 8.1 mph - N/A   Mostly Cloudy
11:56 AM 55.2 °F 46.0 °F 71% 30.03 in 10.0 mi SSE 11.5 mph - N/A   Mostly Cloudy
12:56 PM 57.9 °F 45.3 °F 63% 29.99 in 10.0 mi SSE 12.7 mph - N/A   Mostly Cloudy
1:56 PM 59.5 °F 44.8 °F 58% 29.96 in 10.0 mi SSE 13.8 mph - N/A   Mostly Cloudy
2:56 PM 61.0 °F 45.7 °F 57% 29.94 in 10.0 mi SSE 9.2 mph - N/A   Mostly Cloudy
3:55 PM 58.5 °F 46.4 °F 64% 29.89 in 10.0 mi ESE 8.1 mph - N/A   Mostly Cloudy
4:55 PM 57.7 °F 47.7 °F 69% 29.86 in 10.0 mi ESE 11.5 mph - N/A   Mostly Cloudy
5:55 PM 58.3 °F 46.9 °F 66% 29.81 in 10.0 mi ESE 12.7 mph - N/A   Mostly Cloudy
6:55 PM 57.7 °F 50.2 °F 76% 29.83 in 10.0 mi East 5.8 mph - N/A   Overcast
7:56 PM 56.3 °F 49.8 °F 79% 29.81 in 12.0 mi ENE 6.9 mph - N/A   Mostly Cloudy
8:55 PM 55.2 °F 50.5 °F 84% 29.78 in 12.0 mi East 9.2 mph - N/A   Mostly Cloudy
9:56 PM 55.8 °F 51.3 °F 85% 29.72 in 12.0 mi East 12.7 mph - N/A   Mostly Cloudy
10:56 PM 59.4 °F 52.2 °F 77% 29.69 in 12.0 mi ESE 15.0 mph - N/A   Overcast
11:37 PM 60.8 °F 50.0 °F 68% 29.66 in 10.0 mi SSE 13.8 mph - N/A   Light Drizzle
11:46 PM 59.0 °F 50.0 °F 72% 29.66 in 10.0 mi SSE 13.8 mph - N/A   Scattered Clouds
11:56 PM 59.2 °F 49.8 °F 71% 29.65 in 10.0 mi SSE 13.8 mph - 0.00 in   Scattered Clouds